Temp
67 68 62 62 63 63 65 68 65 63 70 72 68 68 72 71 71 70 69 68 69 71
67 68 69 68 65 65 68 66 63 63 65 69 71 70 71 71 70 70 69 69 70 70
69 70 71 71 70 70 72 72 70 69 68 69 70 71 70 70 71 70 71 71 69 69
70 70 71 71 72 72 72 72 72 71 71 71 71 72 72 72 72 72 71 70 69 66
69 70 69 69 70 71 71 72 72 72 71 71 72 73 72 71 71 71 70 69 65 63
68 68 69 69 69 70 69 70 70 71 70 70 70 71 71 70 69 69 65 61 60 58
69 69 69 69 69 69 69 68 69 70 70 69 71 70 71 69 66 63 60 58 58 58
69 69 69 69 69 69 68 69 69 69 69 69 67 69 69 67 64 60 59 60 57 56
71 70 69 69 68 68 68 68 68 68 68 68 68 55 49 57 66 62 60 58 55 56
71 70 69 69 69 68 67 68 68 69 69 68 69 49 45 45 63 60 58 56 53 48
71 70 70 69 68 68 68 67 67 67 68 64 64 47 45 44 54 56 54 51 48 45
71 70 70 68 68 68 68 67 66 66 66 64 60 44 43 43 45 42 40 41 41 40
73 70 70 69 67 67 66 62 50 43 44 40 43 39 41 43 41 36 35 35 36 36
71 70 69 64 57 50 43 40 37 36 36 38 38 38 38 38 36 34 33 32 32 33
MSLP
1012.23 1012.75 1013.45 1013.87 1014.47 1014.96 1015.28 1015.59 1016.04 1016.69 1016.81 1016.93 1017.28 1017.68 1018.20 1018.96 1019.43 1019.54 1019.40 1019.54 1019.69 1019.53
1011.58 1011.89 1012.25 1012.81 1013.71 1014.15 1014.55 1015.12 1015.34 1015.78 1016.38 1016.77 1016.87 1017.26 1017.43 1017.97 1018.17 1018.69 1018.77 1018.79 1018.80 1018.76
1010.43 1010.86 1011.28 1011.89 1012.32 1012.76 1013.15 1013.76 1014.24 1014.83 1015.45 1016.06 1016.20 1016.44 1016.77 1017.05 1017.24 1017.50 1017.47 1017.63 1017.74 1017.85
1009.38 1009.98 1010.56 1010.93 1011.31 1011.67 1012.21 1012.54 1013.03 1013.62 1014.31 1014.75 1015.09 1015.42 1015.71 1015.75 1015.91 1016.00 1016.10 1016.49 1016.82 1016.92
1008.69 1009.22 1009.70 1010.03 1010.32 1010.94 1011.08 1011.49 1011.71 1012.40 1013.02 1013.39 1013.74 1014.08 1014.32 1014.47 1014.58 1014.83 1014.93 1015.46 1016.18 1016.50
1007.54 1007.96 1008.22 1008.67 1009.41 1010.06 1010.56 1010.89 1011.42 1011.75 1011.55 1011.62 1011.95 1012.45 1012.95 1013.20 1013.48 1013.81 1014.10 1014.56 1015.00 1015.19
1006.05 1006.38 1006.89 1007.76 1008.48 1008.87 1009.34 1010.11 1010.48 1010.67 1010.88 1011.17 1011.28 1011.42 1011.60 1011.94 1012.36 1012.64 1013.23 1013.47 1013.48 1013.76
1004.65 1005.62 1006.29 1006.83 1007.39 1008.03 1008.56 1008.83 1009.23 1009.63 1009.85 1010.12 1010.45 1010.64 1010.99 1011.32 1011.67 1011.96 1012.22 1012.44 1012.59 1012.79
1003.76 1004.30 1004.74 1005.39 1006.06 1006.78 1007.33 1007.96 1008.38 1008.54 1008.86 1009.05 1009.25 1009.24 1009.57 1010.06 1010.18 1010.83 1011.00 1011.21 1011.52 1011.64
1002.37 1002.86 1003.53 1004.27 1004.91 1005.32 1005.74 1006.47 1006.62 1006.88 1007.33 1007.56 1008.07 1008.53 1009.27 1009.80 1010.01 1009.85 1010.04 1010.32 1010.82 1011.50
1001.17 1001.78 1002.48 1003.17 1003.66 1004.21 1004.81 1005.23 1005.76 1006.09 1006.31 1006.77 1006.92 1007.50 1008.16 1008.77 1009.13 1009.13 1009.35 1009.72 1010.39 1011.18
1000.36 1000.87 1001.52 1002.17 1002.72 1003.38 1004.03 1004.66 1004.99 1005.25 1005.78 1006.36 1006.47 1007.00 1007.35 1008.22 1008.90 1009.45 1010.15 1010.52 1011.01 1011.54
999.64 1000.29 1000.69 1001.46 1002.33 1002.93 1003.59 1004.31 1005.49 1005.92 1006.87 1007.27 1007.42 1007.72 1007.91 1008.27 1009.17 1010.08 1010.84 1011.60 1012.12 1012.52
999.74 1000.48 1000.88 1001.55 1002.85 1003.96 1004.54 1005.53 1006.49 1007.17 1008.17 1008.43 1008.51 1008.80 1008.92 1009.18 1009.74 1010.57 1011.50 1012.35 1013.13 1013.93
Wind_Speed
20 14 13 14 12 11 11 13 13 11 14 16 12 12 15 12 12 13 12 15 14 11
17 20 18 22 15 13 14 11 10 11 12 15 17 15 16 12 15 14 14 15 15 13
21 21 20 19 21 21 19 19 18 18 17 18 18 18 18 15 17 17 14 13 17 15
20 21 20 19 20 21 20 20 21 20 20 21 21 20 19 19 19 19 18 18 18 16
20 21 21 21 22 19 21 22 22 22 21 22 21 20 20 20 19 19 19 18 16 16
22 21 23 22 22 21 21 20 21 22 22 23 23 22 21 21 20 19 17 12 12 11
22 23 22 21 21 22 22 21 22 21 21 20 19 19 21 21 19 17 16 16 15 16
21 21 21 21 21 20 20 20 21 21 20 19 18 15 18 17 17 15 16 16 14 15
20 21 21 21 20 19 19 21 20 20 21 20 15 17 17 17 17 16 16 15 15 16
20 21 20 19 20 21 20 19 21 20 20 20 19 14 14 16 16 14 15 15 11 7
19 19 18 18 19 18 16 18 17 17 18 15 14 13 17 19 17 16 12 9 10 9
17 17 17 18 18 16 15 15 12 12 17 16 13 8 13 11 5 5 5 5 6 9
15 16 17 16 15 13 13 6 3 6 5 5 2 2 8 10 7 8 6 8 9 13
11 12 12 6 6 6 8 8 8 9 8 9 8 9 12 10 7 8 8 8 8 8
Wind_Direction
201 195 194 190 194 201 200 202 186 196 219 225 213 207 213 224 233 238 232 228 227 235
204 202 202 200 200 204 204 201 192 188 208 220 215 210 215 224 232 236 236 235 237 232
205 208 208 204 206 211 209 210 204 205 208 217 223 223 223 230 234 239 239 238 235 228
206 209 211 214 213 213 214 211 216 215 218 224 226 228 230 236 240 242 240 235 235 235
208 207 210 216 216 215 216 213 215 215 222 228 230 233 236 241 241 244 242 237 237 242
209 209 213 213 214 217 222 224 225 224 223 222 224 229 232 236 235 235 233 223 228 237
208 211 212 213 215 215 218 224 228 228 231 234 236 231 227 225 227 225 221 224 220 216
209 212 214 217 218 220 219 221 223 226 230 230 230 231 235 234 231 230 237 235 226 222
215 212 214 216 216 218 220 223 229 231 231 233 232 224 214 225 225 228 231 231 226 228
214 215 215 214 214 218 220 221 227 230 231 233 238 220 216 220 235 235 232 232 221 204
211 213 210 211 216 217 218 221 225 233 234 235 240 219 209 213 224 231 233 214 190 177
212 208 207 211 210 212 216 221 227 228 233 235 233 222 212 199 160 111 82 86 121 137
206 206 206 206 207 205 207 215 97 83 50 45 74 150 159 143 134 121 106 86 94 118
201 210 205 168 122 124 101 93 81 78 55 52 58 68 82 101 108 118 108 98 95 85